When you browse on this site, cookies collect data to enhance your experience and personalize the content and advertising you see.
Visit our Privacy Policy to learn more. By continuing to use the site, you agree to this use of cookies and data.
  • In Hungary
  • List of Countries
  • For 7 days
  • Water Temperature
  • Weather Map
  • News
  • Weather Widgets
  • user-avatar
    Login

    Hourly Weather Tame

    Today, 25 May, Monday

    Time Temperature Precipitation Wind Pressure Humidity
    00:00 +25°C° 0.4 mm 1 mps 733 mmHg 91%
    01:00 +25°C° 0.4 mm 1 mps 733 mmHg 91%
    02:00 +25°C° 0.3 mm 1 mps 733 mmHg 91%
    03:00 +25°C° 0.3 mm 1 mps 733 mmHg 90%
    04:00 +25°C° 0.3 mm 1 mps 732 mmHg 90%
    05:00 +23°C° 0.4 mm 0 mps 733 mmHg 89%
    06:00 +24°C° 0.4 mm 0 mps 733 mmHg 88%
    07:00 +24°C° 0.4 mm 0 mps 734 mmHg 88%
    08:00 +26°C° 0.2 mm 0 mps 734 mmHg 82%
    09:00 +30°C° 0.2 mm 1 mps 734 mmHg 77%
    10:00 +31°C° 0.2 mm 1 mps 734 mmHg 72%
    11:00 +31°C° 0.9 mm 1 mps 734 mmHg 73%
    12:00 +31°C° 0.9 mm 2 mps 733 mmHg 75%
    13:00 +31°C° 0.9 mm 2 mps 732 mmHg 76%
    14:00 +31°C° 0.9 mm 2 mps 732 mmHg 78%
    15:00 +31°C° 0.9 mm 1 mps 731 mmHg 80%
    16:00 +31°C° 0.9 mm 1 mps 731 mmHg 82%
    17:00 +29°C° 0.2 mm 1 mps 731 mmHg 85%
    18:00 +28°C° 0.2 mm 1 mps 732 mmHg 89%
    19:00 +27°C° 0.2 mm 1 mps 732 mmHg 92%
    20:00 +26°C° 0.4 mm 1 mps 733 mmHg 92%
    21:00 +26°C° 0.4 mm 1 mps 733 mmHg 92%
    22:00 +26°C° 0.4 mm 1 mps 734 mmHg 92%
    23:00 +25°C° 0.3 mm 1 mps 734 mmHg 91%

    Tomorrow, 26 May, Tuesday

    Time Temperature Precipitation Wind Pressure Humidity
    00:00 +25°C° 0.3 mm 1 mps 734 mmHg 91%
    01:00 +25°C° 0.3 mm 1 mps 733 mmHg 91%
    02:00 +25°C° 0.3 mm 1 mps 733 mmHg 91%
    03:00 +25°C° 0.3 mm 1 mps 733 mmHg 91%
    04:00 +25°C° 0.3 mm 1 mps 733 mmHg 92%
    05:00 +25°C° 0.1 mm 1 mps 733 mmHg 91%
    06:00 +25°C° 0.1 mm 1 mps 734 mmHg 91%
    07:00 +25°C° 0.1 mm 1 mps 734 mmHg 91%
    08:00 +27°C° 0.1 mm 1 mps 734 mmHg 86%
    09:00 +28°C° 0.1 mm 1 mps 734 mmHg 82%
    10:00 +29°C° 0.1 mm 1 mps 735 mmHg 77%
    11:00 +30°C° 0.3 mm 1 mps 734 mmHg 75%
    12:00 +31°C° 0.3 mm 2 mps 733 mmHg 73%
    13:00 +33°C° 0.3 mm 3 mps 732 mmHg 72%
    14:00 +31°C° 1.1 mm 2 mps 732 mmHg 76%
    15:00 +31°C° 1.1 mm 2 mps 732 mmHg 80%
    16:00 +30°C° 1.1 mm 2 mps 731 mmHg 84%
    17:00 +29°C° 1.3 mm 2 mps 732 mmHg 87%
    18:00 +27°C° 1.3 mm 2 mps 732 mmHg 90%
    19:00 +26°C° 1.3 mm 2 mps 733 mmHg 93%
    20:00 +26°C° 0.5 mm 2 mps 733 mmHg 93%
    21:00 +25°C° 0.5 mm 2 mps 734 mmHg 94%
    22:00 +25°C° 0.5 mm 2 mps 734 mmHg 95%
    23:00 +25°C° 0.6 mm 2 mps 734 mmHg 95%

    Day after tomorrow, 27 May, Wednesday

    Time Temperature Precipitation Wind Pressure Humidity
    00:00 +25°C° 0.6 mm 2 mps 734 mmHg 96%
    01:00 +24°C° 0.6 mm 2 mps 734 mmHg 97%
    02:00 +24°C° 1.2 mm 2 mps 733 mmHg 97%
    03:00 +24°C° 1.2 mm 2 mps 733 mmHg 97%
    04:00 +24°C° 1.2 mm 1 mps 733 mmHg 96%
    05:00 +24°C° 0.1 mm 1 mps 733 mmHg 95%
    06:00 +25°C° 0.1 mm 1 mps 734 mmHg 94%
    07:00 +25°C° 0.1 mm 1 mps 734 mmHg 93%
    08:00 +25°C° 0.1 mm 1 mps 734 mmHg 93%
    09:00 +26°C° 0.1 mm 1 mps 734 mmHg 92%
    10:00 +24°C° 0.1 mm 0 mps 734 mmHg 92%
    11:00 +26°C° 0.1 mm 0 mps 734 mmHg 83%
    12:00 +30°C° 0.1 mm 1 mps 733 mmHg 74%
    13:00 +33°C° 0.1 mm 1 mps 732 mmHg 64%
    14:00 +32°C° 0.9 mm 1 mps 732 mmHg 71%
    15:00 +31°C° 0.9 mm 1 mps 731 mmHg 79%
    16:00 +30°C° 0.9 mm 1 mps 731 mmHg 86%
    17:00 +28°C° 1.6 mm 1 mps 731 mmHg 88%
    18:00 +27°C° 1.6 mm 1 mps 732 mmHg 91%
    19:00 +26°C° 1.6 mm 1 mps 733 mmHg 94%
    20:00 +25°C° 0.6 mm 1 mps 733 mmHg 94%
    21:00 +25°C° 0.6 mm 1 mps 733 mmHg 95%
    22:00 +25°C° 0.6 mm 1 mps 734 mmHg 95%
    23:00 +25°C° 0.1 mm 1 mps 733 mmHg 95%

    28 May, Thursday

    Time Temperature Precipitation Wind Pressure Humidity
    00:00 +25°C° 0.1 mm 1 mps 733 mmHg 95%
    01:00 +23°C° 0.1 mm 0 mps 732 mmHg 95%
    02:00 +22°C° 0.6 mm 0 mps 732 mmHg 95%
    03:00 +22°C° 0.6 mm 0 mps 732 mmHg 96%
    04:00 +22°C° 0.6 mm 0 mps 732 mmHg 96%
    05:00 +22°C° 0.2 mm 0 mps 732 mmHg 96%
    06:00 +23°C° 0.2 mm 0 mps 733 mmHg 96%
    07:00 +23°C° 0.2 mm 0 mps 733 mmHg 95%
    08:00 +24°C° 0.2 mm 0 mps 733 mmHg 93%
    09:00 +24°C° 0.2 mm 0 mps 734 mmHg 92%
    10:00 +25°C° 0.2 mm 0 mps 734 mmHg 90%
    11:00 +28°C° 0.3 mm 1 mps 733 mmHg 85%
    12:00 +29°C° 0.3 mm 1 mps 733 mmHg 81%
    13:00 +30°C° 0.3 mm 1 mps 732 mmHg 76%
    14:00 +30°C° 0.3 mm 1 mps 731 mmHg 77%
    15:00 +30°C° 0.3 mm 1 mps 731 mmHg 77%
    16:00 +28°C° 0.3 mm 0 mps 730 mmHg 78%
    17:00 +27°C° 0.5 mm 0 mps 731 mmHg 82%
    18:00 +26°C° 0.5 mm 0 mps 731 mmHg 86%
    19:00 +24°C° 0.5 mm 0 mps 732 mmHg 90%
    20:00 +24°C° 1.5 mm 0 mps 732 mmHg 91%
    21:00 +24°C° 1.5 mm 0 mps 733 mmHg 92%
    22:00 +26°C° 1.5 mm 1 mps 733 mmHg 93%
    23:00 +25°C° 2.8 mm 1 mps 733 mmHg 94%

    29 May, Friday

    Time Temperature Precipitation Wind Pressure Humidity
    00:00 +25°C° 2.8 mm 1 mps 733 mmHg 96%
    01:00 +25°C° 2.8 mm 1 mps 732 mmHg 97%
    02:00 +25°C° 1.8 mm 1 mps 732 mmHg 97%
    03:00 +25°C° 1.8 mm 1 mps 732 mmHg 96%
    04:00 +25°C° 1.8 mm 1 mps 732 mmHg 96%
    05:00 +25°C° 0.2 mm 1 mps 733 mmHg 95%
    06:00 +25°C° 0.2 mm 1 mps 733 mmHg 95%
    07:00 +23°C° 0.2 mm 0 mps 734 mmHg 94%
    08:00 +23°C° 0.2 mm 0 mps 734 mmHg 95%
    09:00 +25°C° 0.2 mm 1 mps 734 mmHg 95%
    10:00 +25°C° 0.2 mm 1 mps 734 mmHg 96%
    11:00 +27°C° 0.2 mm 1 mps 733 mmHg 90%
    12:00 +28°C° 0.2 mm 1 mps 733 mmHg 84%
    13:00 +29°C° 0.2 mm 1 mps 732 mmHg 78%
    14:00 +29°C° 0.4 mm 1 mps 732 mmHg 78%
    15:00 +30°C° 0.4 mm 1 mps 731 mmHg 78%
    16:00 +30°C° 0.4 mm 2 mps 731 mmHg 78%
    17:00 +28°C° 0.2 mm 1 mps 731 mmHg 82%
    18:00 +27°C° 0.2 mm 1 mps 732 mmHg 86%
    19:00 +26°C° 0.2 mm 1 mps 732 mmHg 90%
    20:00 +26°C° 0.1 mm 1 mps 732 mmHg 89%
    21:00 +26°C° 0.1 mm 1 mps 733 mmHg 89%
    22:00 +26°C° 0.1 mm 1 mps 733 mmHg 88%
    23:00 +25°C° 0.1 mm 1 mps 733 mmHg 87%

    30 May, Saturday

    Time Temperature Precipitation Wind Pressure Humidity
    00:00 +25°C° 0.1 mm 1 mps 733 mmHg 87%
    01:00 +25°C° 0.1 mm 1 mps 733 mmHg 87%
    02:00 +25°C° 0.1 mm 1 mps 732 mmHg 89%
    03:00 +25°C° 0.1 mm 1 mps 732 mmHg 90%
    04:00 +22°C° 0.1 mm 0 mps 732 mmHg 92%
    05:00 +24°C° 0.4 mm 1 mps 733 mmHg 93%
    06:00 +25°C° 0.4 mm 1 mps 733 mmHg 94%
    07:00 +25°C° 0.4 mm 1 mps 734 mmHg 94%
    08:00 +25°C° 0.4 mm 1 mps 734 mmHg 94%
    09:00 +25°C° 0.4 mm 1 mps 734 mmHg 93%
    10:00 +23°C° 0.4 mm 0 mps 734 mmHg 93%
    11:00 +24°C° 0.1 mm 0 mps 734 mmHg 91%
    12:00 +24°C° 0.1 mm 0 mps 733 mmHg 90%
    13:00 +25°C° 0.1 mm 0 mps 733 mmHg 88%
    14:00 +27°C° 0 mm 1 mps 732 mmHg 88%
    15:00 +27°C° 0 mm 1 mps 731 mmHg 87%
    16:00 +27°C° 0 mm 1 mps 731 mmHg 87%
    17:00 +27°C° 0 mm 1 mps 731 mmHg 89%
    18:00 +26°C° 0 mm 1 mps 731 mmHg 92%
    19:00 +25°C° 0 mm 1 mps 732 mmHg 94%
    20:00 +23°C° 0 mm 0 mps 732 mmHg 92%
    21:00 +24°C° 0 mm 0 mps 733 mmHg 90%
    22:00 +24°C° 0 mm 0 mps 734 mmHg 88%
    23:00 +23°C° 0 mm 0 mps 733 mmHg 87%
    Show more